Weather History for Windom, MN

Change the Weather History Date:

Friday, February 1, 2013

  Actual Average Record
Temperature  
Mean Temperature 3 °F -  
Max Temperature 15 °F 24 °F 87 °F (1999)
Min Temperature -9 °F 4 °F -25 °F (1979)
Degree Days  
Heating Degree Days 62    
Moisture  
Dew Point -3 °F    
Average Humidity 76    
Maximum Humidity 86    
Minimum Humidity 67    
Precipitation  
Precipitation 0.00 in - - ()
Sea Level Pressure  
Sea Level Pressure 30.12 in    
Wind  
Wind Speed 7 mph (SW)    
Max Wind Speed 17 mph    
Max Gust Speed 23 mph    
Visibility 10 miles    
Events Snow    
Averages and records for this station are not official NWS values.
T = Trace of Precipitation, MM = Missing Value Source: NWS Daily Summary

Daily Weather History Graph

Daily Weather History Graph

Search for Another Location

Airport:

Trip Planner

Search our weather history database for the weather conditions in past years. The results will help you decide how hot, cold, wet, or windy it might be!

Date:

Astronomy

Feb. 01, 2013 Rise Set
Actual Time 7:37 AM CST 5:31 PM CST
Civil Twilight 7:06 AM CST 6:02 PM CST
Nautical Twilight 6:32 AM CST 6:36 PM CST
Astronomical Twilight 5:58 AM CST 7:10 PM CST
Moon 11:54 PM CST (2/1) 9:57 AM CST (2/1)
Length of Visible Light 10h 55m
Length of Day
9h 54m
Waning Gibbous, 70% of the Moon is Illuminated
Feb 1
Waning Gibbous
Feb 3
Last Quarter
Feb 10
New
Feb 17
First Quarter
Feb 25
Full

Hourly Weather History & Observations

Time (CST) Temp. Windchill Dew Point Humidity Pressure Visibility Wind Dir Wind Speed Gust Speed Precip Events Conditions
12:12 AM -9.4 °F -28.9 °F -14.8 °F 77% 30.27 in 10.0 mi WNW 11.5 mph - N/A   Clear
12:33 AM -9.4 °F -27.9 °F -14.8 °F 77% 30.27 in 10.0 mi West 10.4 mph - N/A   Clear
12:52 AM -9.4 °F -27.9 °F -14.8 °F 77% 30.27 in 10.0 mi West 10.4 mph - N/A   Clear
1:13 AM -9.4 °F -26.8 °F -14.8 °F 77% 30.26 in 10.0 mi WNW 9.2 mph - N/A   Clear
1:33 AM -9.4 °F -25.6 °F -14.8 °F 77% 30.26 in 10.0 mi West 8.1 mph - N/A   Clear
1:52 AM -9.4 °F -25.6 °F -14.8 °F 77% 30.27 in 10.0 mi West 8.1 mph - N/A   Clear
2:12 AM -9.4 °F -24.3 °F -14.8 °F 77% 30.27 in 10.0 mi West 6.9 mph - N/A   Clear
2:33 AM -9.4 °F -24.3 °F -14.8 °F 77% 30.27 in 10.0 mi West 6.9 mph - N/A   Clear
2:52 AM -9.4 °F -27.9 °F -14.8 °F 77% 30.27 in 10.0 mi West 10.4 mph - N/A   Clear
3:12 AM -9.4 °F -26.8 °F -14.8 °F 77% 30.26 in 10.0 mi West 9.2 mph - N/A   Clear
3:33 AM -9.4 °F -24.3 °F -14.8 °F 77% 30.26 in 10.0 mi West 6.9 mph - N/A   Clear
3:52 AM -9.4 °F -25.6 °F -14.8 °F 77% 30.26 in 10.0 mi West 8.1 mph - N/A   Clear
4:12 AM -9.4 °F -24.3 °F -14.8 °F 77% 30.26 in 10.0 mi West 6.9 mph - N/A   Clear
4:33 AM -9.4 °F -25.6 °F -14.8 °F 77% 30.26 in 10.0 mi West 8.1 mph - N/A   Clear
4:52 AM -9.4 °F -20.9 °F -14.8 °F 77% 30.26 in 10.0 mi WSW 4.6 mph - N/A   Clear
5:12 AM -9.4 °F -20.9 °F -14.8 °F 77% 30.26 in 10.0 mi WSW 4.6 mph - N/A   Clear
5:33 AM -9.4 °F -20.9 °F -14.8 °F 77% 30.26 in 10.0 mi SW 4.6 mph - N/A   Clear
5:52 AM -9.4 °F -20.9 °F -14.8 °F 77% 30.25 in 10.0 mi WSW 4.6 mph - N/A   Clear
6:13 AM -9.4 °F -18.6 °F -14.8 °F 77% 30.24 in 10.0 mi WSW 3.5 mph - N/A   Clear
6:33 AM -9.4 °F -20.9 °F -14.8 °F 77% 30.24 in 10.0 mi SW 4.6 mph - N/A   Clear
6:52 AM -9.4 °F -18.6 °F -14.8 °F 77% 30.23 in 10.0 mi SW 3.5 mph - N/A   Clear
7:13 AM -9.4 °F - -14.8 °F 77% 30.22 in 10.0 mi Calm Calm - N/A   Clear
7:33 AM -9.4 °F - -14.8 °F 77% 30.22 in 10.0 mi Calm Calm - N/A   Clear
7:52 AM -9.4 °F - -14.8 °F 77% 30.21 in 10.0 mi Calm Calm - N/A   Clear
8:13 AM -7.6 °F -20.6 °F -13.0 °F 77% 30.21 in 10.0 mi SSW 5.8 mph - N/A   Clear
8:33 AM -5.8 °F -16.7 °F -11.2 °F 77% 30.21 in 10.0 mi SSW 4.6 mph - N/A   Clear
8:52 AM -5.8 °F -19.9 °F -11.2 °F 77% 30.21 in 10.0 mi SSW 6.9 mph - N/A   Clear
9:13 AM -4.0 °F -19.0 °F -11.2 °F 71% 30.20 in 10.0 mi SSW 8.1 mph - N/A   Clear
9:33 AM -2.2 °F -18.9 °F -9.4 °F 71% 30.20 in 10.0 mi South 10.4 mph - N/A   Clear
9:52 AM -2.2 °F -16.8 °F -9.4 °F 71% 30.20 in 10.0 mi South 8.1 mph - N/A   Clear
10:13 AM -2.2 °F -18.9 °F -7.6 °F 78% 30.17 in 10.0 mi South 10.4 mph - N/A   Mostly Cloudy
10:32 AM -0.4 °F -14.7 °F -7.6 °F 72% 30.18 in 10.0 mi South 8.1 mph - N/A   Overcast
10:52 AM 1.4 °F -13.5 °F -5.8 °F 72% 30.17 in 10.0 mi SSW 9.2 mph - N/A   Overcast
11:13 AM 3.2 °F -10.3 °F -4.0 °F 72% 30.16 in 10.0 mi South 8.1 mph - N/A   Overcast
11:32 AM 3.2 °F -10.3 °F -2.2 °F 78% 30.16 in 10.0 mi South 8.1 mph - N/A   Scattered Clouds
11:52 AM 6.8 °F -4.8 °F -0.4 °F 72% 30.14 in 10.0 mi South 6.9 mph - N/A   Scattered Clouds
12:13 PM 6.8 °F -6.9 °F -2.2 °F 67% 30.12 in 10.0 mi South 9.2 mph - N/A   Scattered Clouds
12:32 PM 8.6 °F -2.6 °F -0.4 °F 67% 30.11 in 10.0 mi SSE 6.9 mph - N/A   Mostly Cloudy
12:52 PM 8.6 °F -4.7 °F -0.4 °F 67% 30.10 in 10.0 mi South 9.2 mph - N/A   Mostly Cloudy
1:12 PM 10.4 °F -1.5 °F 1.4 °F 67% 30.07 in 10.0 mi South 8.1 mph - N/A   Scattered Clouds
1:32 PM 10.4 °F -4.1 °F 1.4 °F 67% 30.06 in 10.0 mi South 11.5 mph 17.3 mph N/A   Scattered Clouds
1:53 PM 10.4 °F -4.8 °F 1.4 °F 67% 30.04 in 10.0 mi South 12.7 mph 17.3 mph N/A   Scattered Clouds
2:12 PM 12.2 °F -1.0 °F 3.2 °F 67% 30.03 in 10.0 mi SSE 10.4 mph - N/A   Mostly Cloudy
2:32 PM 12.2 °F -1.0 °F 5.0 °F 73% 30.03 in 10.0 mi South 10.4 mph 18.4 mph N/A   Overcast
2:53 PM 14.0 °F 0.5 °F 6.8 °F 73% 30.01 in 10.0 mi South 11.5 mph 16.1 mph N/A   Overcast
3:12 PM 12.2 °F -0.2 °F 3.2 °F 67% 30.00 in 10.0 mi SSE 9.2 mph - N/A   Overcast
3:33 PM 12.2 °F 0.7 °F 5.0 °F 73% 30.00 in 10.0 mi South 8.1 mph - N/A Snow Light Snow
3:53 PM 12.2 °F -1.8 °F 6.8 °F 79% 29.99 in 10.0 mi South 11.5 mph - N/A Snow Light Snow
4:12 PM 12.2 °F -1.0 °F 6.8 °F 79% 29.98 in 3.0 mi South 10.4 mph - N/A Snow Light Snow
4:33 PM 14.0 °F 3.9 °F 8.6 °F 79% 29.97 in 7.0 mi South 6.9 mph - N/A Snow Light Snow
4:53 PM 14.0 °F 3.9 °F 8.6 °F 79% 29.97 in 10.0 mi South 6.9 mph - N/A   Overcast
5:12 PM 14.0 °F 6.5 °F 8.6 °F 79% 29.96 in 10.0 mi South 4.6 mph - N/A   Overcast
5:33 PM 15.8 °F 6.1 °F 8.6 °F 73% 29.98 in 10.0 mi South 6.9 mph - N/A   Overcast
5:53 PM 15.8 °F 8.6 °F 8.6 °F 73% 29.98 in 10.0 mi South 4.6 mph - N/A   Overcast
6:12 PM 15.8 °F 4.2 °F 8.6 °F 73% 29.97 in 10.0 mi South 9.2 mph - N/A   Overcast
6:33 PM 15.8 °F - 10.4 °F 79% 29.97 in 10.0 mi Calm Calm - N/A   Overcast
6:52 PM 15.8 °F - 10.4 °F 79% 29.96 in 10.0 mi Calm Calm - N/A   Overcast
7:12 PM 15.8 °F - 10.4 °F 79% 29.96 in 10.0 mi Calm Calm - N/A   Overcast
8:13 PM 15.8 °F - 10.4 °F 79% 29.96 in 10.0 mi Calm Calm - N/A   Overcast
8:32 PM 15.8 °F - 10.4 °F 79% 29.96 in 10.0 mi Calm Calm - N/A   Overcast
8:52 PM 15.8 °F - 10.4 °F 79% 29.96 in 10.0 mi Calm Calm - N/A   Overcast
9:13 PM 15.8 °F - 10.4 °F 79% 29.96 in 10.0 mi Calm Calm - N/A   Overcast
9:32 PM 15.8 °F - 12.2 °F 86% 29.96 in 10.0 mi Calm Calm - N/A   Overcast
9:52 PM 15.8 °F - 12.2 °F 86% 29.96 in 10.0 mi Calm Calm - N/A   Overcast
10:13 PM 15.8 °F - 12.2 °F 86% 29.96 in 10.0 mi Calm Calm - N/A   Overcast
10:32 PM 15.8 °F - 12.2 °F 86% 29.96 in 10.0 mi Calm Calm - N/A   Overcast
10:52 PM 15.8 °F 10.2 °F 12.2 °F 86% 29.96 in 10.0 mi West 3.5 mph - N/A   Overcast
11:13 PM 15.8 °F 7.2 °F 12.2 °F 86% 29.98 in 10.0 mi WNW 5.8 mph - N/A   Overcast
11:52 PM 15.8 °F -0.2 °F 12.2 °F 86% 29.98 in 10.0 mi NW 17.3 mph 23.0 mph N/A   Overcast